This is the latest recevied weather packets stored in our database for station/object EA3GKP-10. If no packets are shown the sender has not sent any weather packets the latest 1 day(s).
| Time | Temp. | Humidity | Pressure | Rain* | Wind** | Luminosity | Snow |
|---|---|---|---|---|---|---|---|
| 1777991348 | 22.78° C | - | - | 0 mm | 1.79 m/s, 83° | - | - |
| 1777991042 | 22.22° C | - | - | 0 mm | 2.68 m/s, 141° | - | - |
| 1777990739 | 22.78° C | - | - | 0 mm | 2.24 m/s, 118° | - | - |
| 1777990132 | 21.67° C | - | - | 0 mm | 0.89 m/s, 84° | - | - |
| 1777989824 | 22.22° C | - | - | 0 mm | 0.45 m/s, 359° | - | - |
| 1777989514 | 22.22° C | - | - | 0 mm | 2.24 m/s, 107° | - | - |
| 1777989214 | 22.22° C | - | - | 0 mm | 1.34 m/s, 328° | - | - |
| 1777988910 | 22.22° C | - | - | 0 mm | 1.34 m/s, 75° | - | - |
| 1777988606 | 21.11° C | - | - | 0 mm | 1.79 m/s, 89° | - | - |
| 1777988299 | 22.78° C | - | - | 0 mm | 2.24 m/s, 70° | - | - |
| 1777987993 | 22.22° C | - | - | 0 mm | 0.89 m/s, 118° | - | - |
| 1777987690 | 21.67° C | - | - | 0 mm | 1.79 m/s, 72° | - | - |
| 1777987080 | 21.67° C | - | - | 0 mm | 1.34 m/s, 113° | - | - |
| 1777986775 | 21.11° C | - | - | 0 mm | 1.34 m/s, 38° | - | - |
| 1777986469 | 21.67° C | - | - | 0 mm | 1.34 m/s, 128° | - | - |
| 1777986162 | 22.78° C | - | - | 0 mm | 1.34 m/s, 117° | - | - |
| 1777985856 | 21.67° C | - | - | 0 mm | 2.24 m/s, 60° | - | - |
| 1777985553 | 21.67° C | - | - | 0 mm | 1.79 m/s, 25° | - | - |
| 1777985250 | 21.67° C | - | - | 0 mm | 1.34 m/s, 70° | - | - |
| 1777984948 | 20.56° C | - | - | 0 mm | 1.34 m/s, 111° | - | - |
| 1777984645 | 20.56° C | - | - | 0 mm | 0.45 m/s, 359° | - | - |
| 1777984341 | 20.56° C | - | - | 0 mm | 2.68 m/s, 359° | - | - |
| 1777984037 | 21.11° C | - | - | 0 mm | 1.79 m/s, 96° | - | - |
| 1777983733 | 20° C | - | - | 0 mm | 1.34 m/s, 131° | - | - |
| 1777983429 | 21.11° C | - | - | 0 mm | 2.24 m/s, 97° | - | - |
* Rain latest hour (hover to see other rain measurements)
** Current wind speed in m/s (hover to see current wind gust speed)